Location: ??
(35.5138°N, 139.6953°E)
Time: 08:26:00
(UTC+00:00)

ATLAS 2AS CENTAUR R/B - Pass Details

Date: 07 June 2020
Orbit: 925 x 1286 km, 63.7° (Epoch: 24 June)

Event Time Altitude Azimuth Distance (km) Brightness Sun altitude
Rises 10:19:02 0° 174° (S) 4,137 5.4 -5.1°
Reaches altitude 10° 10:22:12 10° 163° (SSE) 3,214 4.8 -5.6°
Maximum altitude 10:28:37 29° 108° (ESE) 2,178 3.8 -6.7°
Drops below altitude 10° 10:35:10 10° 53° (NE) 3,291 5.1 -7.8°
Sets 10:38:25 0° 43° (NE) 4,253 5.8 -8.3°
